timestamp,wind_dir_avg,wind_spd_avg,wind_spd_max_dir,wind_spd_gust,battery_voltage,lat,long
2022-02-27 00:04:01+00:00,258.0,7.34,262.0,12.43,12.41,47.59359,-54.27349
2022-02-27 00:14:00+00:00,260.0,5.21,262.0,8.01,12.41,47.59359,-54.27349
2022-02-27 00:24:00+00:00,271.0,5.85,269.0,7.77,12.41,47.59359,-54.27349
2022-02-27 00:34:00+00:00,274.0,5.4,272.0,7.46,12.41,47.59359,-54.27349
2022-02-27 00:44:00+00:00,281.0,6.04,286.0,8.15,12.41,47.59359,-54.27349
2022-02-27 00:54:00+00:00,287.0,7.49,292.0,8.78,12.41,47.59359,-54.27349
2022-02-27 01:04:00+00:00,302.0,8.07,307.0,9.47,12.41,47.59359,-54.27349
2022-02-27 01:14:01+00:00,306.0,8.13,302.0,9.8,12.33,47.59359,-54.27349
2022-02-27 01:24:01+00:00,303.0,7.95,300.0,8.95,12.33,47.59359,-54.27349
2022-02-27 01:34:01+00:00,306.0,9.05,301.0,10.46,12.33,47.59359,-54.27349
2022-02-27 01:44:01+00:00,300.0,8.75,310.0,10.59,12.33,47.59359,-54.27349
2022-02-27 01:54:01+00:00,299.0,8.69,299.0,10.64,12.33,47.59359,-54.27349
2022-02-27 02:04:01+00:00,307.0,9.38,318.0,11.26,12.33,47.59359,-54.27349
2022-02-27 02:14:01+00:00,315.0,9.5,315.0,11.66,12.33,47.59359,-54.27349
2022-02-27 02:24:01+00:00,310.0,9.1,312.0,10.59,12.33,47.59359,-54.27349
2022-02-27 02:34:01+00:00,305.0,9.49,297.0,11.47,12.33,47.59359,-54.27349
2022-02-27 02:44:01+00:00,314.0,8.98,299.0,12.24,12.33,47.59359,-54.27349
2022-02-27 02:54:01+00:00,312.0,9.71,303.0,13.14,12.33,47.59359,-54.27349
2022-02-27 03:04:01+00:00,309.0,11.32,307.0,14.78,12.33,47.59359,-54.27349
2022-02-27 03:14:01+00:00,315.0,9.61,310.0,12.51,12.25,47.59359,-54.27349
2022-02-27 03:24:01+00:00,307.0,9.9,300.0,12.53,12.25,47.59359,-54.27349
2022-02-27 03:34:01+00:00,309.0,9.84,312.0,13.42,12.25,47.59359,-54.27349
2022-02-27 03:44:01+00:00,315.0,9.46,310.0,12.25,12.25,47.59359,-54.27349
2022-02-27 03:54:01+00:00,303.0,8.47,299.0,10.63,12.25,47.59359,-54.27349
2022-02-27 04:04:01+00:00,303.0,7.64,304.0,9.68,12.25,47.59359,-54.27349
2022-02-27 04:14:01+00:00,289.0,9.72,292.0,11.52,12.25,47.59359,-54.27349
2022-02-27 04:24:01+00:00,278.0,8.75,276.0,10.48,12.25,47.59359,-54.27349
2022-02-27 04:34:01+00:00,273.0,9.41,273.0,10.54,12.25,47.59359,-54.27349
2022-02-27 04:44:01+00:00,260.0,8.8,262.0,10.1,12.25,47.59359,-54.27349
2022-02-27 04:54:01+00:00,284.0,6.9,275.0,9.25,12.25,47.59359,-54.27349
2022-02-27 05:04:01+00:00,280.0,6.04,274.0,9.3,12.25,47.59359,-54.27349
2022-02-27 05:14:01+00:00,285.0,6.64,283.0,9.3,12.17,47.59359,-54.27349
2022-02-27 05:24:01+00:00,306.0,4.75,296.0,8.42,12.17,47.59359,-54.27349
2022-02-27 05:34:01+00:00,284.0,5.51,272.0,9.04,12.17,47.59359,-54.27349
2022-02-27 05:44:01+00:00,333.0,2.82,302.0,4.46,12.17,47.59359,-54.27349
2022-02-27 05:54:01+00:00,291.0,6.06,287.0,9.39,12.17,47.59359,-54.27349
2022-02-27 06:04:01+00:00,297.0,3.87,281.0,7.54,12.17,47.59359,-54.27349
2022-02-27 06:14:00+00:00,278.0,9.2,285.0,11.01,12.17,47.59359,-54.27349
2022-02-27 06:24:00+00:00,293.0,2.62,283.0,4.83,12.17,47.59359,-54.27349
2022-02-27 06:34:00+00:00,297.0,5.56,285.0,9.41,12.17,47.59359,-54.27349
2022-02-27 06:44:00+00:00,254.0,1.96,267.0,7.69,12.17,47.59359,-54.27349
2022-02-27 06:54:00+00:00,156.0,1.79,244.0,3.64,12.17,47.59359,-54.27349
2022-02-27 07:04:00+00:00,286.0,3.24,291.0,4.31,12.17,47.59359,-54.27349
2022-02-27 07:14:01+00:00,37.0,1.09,281.0,2.7,12.09,47.59359,-54.27349
2022-02-27 07:24:01+00:00,271.0,4.6,271.0,8.47,12.09,47.59359,-54.27349
2022-02-27 07:34:01+00:00,283.0,3.33,286.0,4.11,12.09,47.59359,-54.27349
2022-02-27 07:44:01+00:00,100.0,1.43,102.0,2.16,12.09,47.59359,-54.27349
2022-02-27 07:54:01+00:00,21.0,2.3,325.0,3.42,12.09,47.59359,-54.27349
2022-02-27 08:04:01+00:00,322.0,0.57,273.0,3.47,12.09,47.59359,-54.27349
2022-02-27 08:14:01+00:00,79.0,0.97,90.0,1.81,12.09,47.59359,-54.27349
2022-02-27 08:24:01+00:00,349.0,1.69,297.0,3.76,12.09,47.59359,-54.27349
2022-02-27 08:34:01+00:00,293.0,3.85,294.0,4.64,12.09,47.59359,-54.27349
2022-02-27 08:44:01+00:00,8.0,2.19,310.0,3.64,12.09,47.59359,-54.27349
2022-02-27 08:54:01+00:00,27.0,1.82,1.0,2.81,12.09,47.59359,-54.27349
2022-02-27 09:04:01+00:00,276.0,0.66,86.0,1.81,12.09,47.59359,-54.27349
2022-02-27 09:14:00+00:00,0.0,0.35,289.0,3.66,12.09,47.59359,-54.27349
2022-02-27 09:24:00+00:00,254.0,0.88,241.0,1.41,12.09,47.59359,-54.27349
2022-02-27 09:34:00+00:00,215.0,1.49,215.0,2.25,12.09,47.59359,-54.27349
2022-02-27 09:44:00+00:00,196.0,0.34,207.0,1.0,12.09,47.59359,-54.27349
2022-02-27 09:54:00+00:00,200.0,0.96,200.0,1.78,12.09,47.59359,-54.27349
2022-02-27 10:04:00+00:00,263.0,1.59,258.0,2.37,12.09,47.59359,-54.27349
2022-02-27 10:14:01+00:00,343.0,2.18,339.0,2.78,12.09,47.59359,-54.27349
2022-02-27 10:24:01+00:00,266.0,0.48,302.0,0.87,12.09,47.59359,-54.27349
2022-02-27 10:34:01+00:00,289.0,1.45,306.0,1.96,12.09,47.59359,-54.27349
2022-02-27 10:44:01+00:00,239.0,0.46,251.0,0.78,12.09,47.59359,-54.27349
2022-02-27 10:54:01+00:00,241.0,0.96,240.0,1.75,12.09,47.59359,-54.27349
2022-02-27 11:04:01+00:00,224.0,1.78,242.0,2.96,12.09,47.59359,-54.27349
2022-02-27 11:14:01+00:00,221.0,2.52,236.0,3.72,12.41,47.59359,-54.27349
2022-02-27 11:24:01+00:00,249.0,3.22,254.0,4.32,12.41,47.59359,-54.27349
2022-02-27 11:34:01+00:00,231.0,4.49,234.0,5.77,12.41,47.59359,-54.27349
2022-02-27 11:44:01+00:00,250.0,6.16,251.0,7.42,12.41,47.59359,-54.27349
2022-02-27 11:54:01+00:00,244.0,6.49,239.0,8.1,12.41,47.59359,-54.27349
2022-02-27 12:04:01+00:00,247.0,7.5,246.0,8.55,12.41,47.59359,-54.27349
2022-02-27 13:14:00+00:00,236.0,13.67,235.0,15.83,13.53,47.59359,-54.27349
2022-02-27 13:24:00+00:00,237.0,12.92,238.0,16.02,13.53,47.59359,-54.27349
2022-02-27 13:34:00+00:00,237.0,13.55,242.0,15.46,13.53,47.59359,-54.27349
2022-02-27 13:44:00+00:00,242.0,14.32,244.0,15.54,13.53,47.59359,-54.27349
2022-02-27 13:54:00+00:00,248.0,13.53,247.0,15.38,13.53,47.59359,-54.27349
2022-02-27 14:04:00+00:00,248.0,13.32,243.0,15.59,13.53,47.59359,-54.27349
2022-02-27 14:14:00+00:00,244.0,13.71,244.0,15.68,13.6,47.59359,-54.27349
2022-02-27 14:24:00+00:00,248.0,13.6,247.0,15.22,13.6,47.59359,-54.27349
2022-02-27 14:34:00+00:00,247.0,13.15,252.0,15.22,13.6,47.59359,-54.27349
2022-02-27 14:44:00+00:00,234.0,11.83,239.0,15.49,13.6,47.59359,-54.27349
2022-02-27 14:54:00+00:00,236.0,12.99,239.0,16.01,13.6,47.59359,-54.27349
2022-02-27 15:04:00+00:00,237.0,15.16,237.0,16.56,13.6,47.59359,-54.27349
2022-02-27 16:14:00+00:00,237.0,14.02,236.0,16.7,14.16,47.59359,-54.27349
2022-02-27 16:24:00+00:00,241.0,14.63,236.0,16.18,14.16,47.59359,-54.27349
2022-02-27 16:34:00+00:00,245.0,14.31,244.0,15.82,14.16,47.59359,-54.27349
2022-02-27 16:44:00+00:00,239.0,14.47,238.0,16.7,14.16,47.59359,-54.27349
2022-02-27 16:54:00+00:00,229.0,11.16,237.0,15.19,14.16,47.59359,-54.27349
2022-02-27 17:04:00+00:00,243.0,13.27,249.0,15.53,14.16,47.59359,-54.27349
2022-02-27 17:14:01+00:00,242.0,12.88,243.0,15.21,14.48,47.59359,-54.27349
2022-02-27 17:24:01+00:00,239.0,14.6,240.0,16.21,14.48,47.59359,-54.27349
2022-02-27 17:34:01+00:00,238.0,13.62,238.0,16.02,14.48,47.59359,-54.27349
2022-02-27 17:44:01+00:00,237.0,12.08,237.0,15.89,14.48,47.59359,-54.27349
2022-02-27 17:54:01+00:00,250.0,12.14,252.0,14.82,14.48,47.59359,-54.27349
2022-02-27 18:04:01+00:00,256.0,12.41,259.0,14.05,14.48,47.59359,-54.27349
2022-02-27 18:14:01+00:00,249.0,13.52,254.0,15.24,13.6,47.59359,-54.27349
2022-02-27 18:24:01+00:00,243.0,14.35,244.0,15.88,13.6,47.59359,-54.27349
2022-02-27 18:34:01+00:00,261.0,13.23,264.0,14.95,13.6,47.59359,-54.27349
2022-02-27 18:44:01+00:00,248.0,12.93,250.0,15.25,13.6,47.59359,-54.27349
2022-02-27 18:54:01+00:00,253.0,11.89,259.0,15.13,13.6,47.59359,-54.27349
2022-02-27 19:04:01+00:00,244.0,14.14,250.0,18.13,13.6,47.59359,-54.27349
2022-02-27 19:14:01+00:00,243.0,14.25,241.0,15.78,13.6,47.59359,-54.27349
2022-02-27 19:24:01+00:00,246.0,13.44,252.0,15.47,13.6,47.59359,-54.27349
2022-02-27 19:34:01+00:00,239.0,13.67,241.0,15.93,13.6,47.59359,-54.27349
2022-02-27 19:44:01+00:00,234.0,14.83,235.0,16.99,13.6,47.59359,-54.27349
2022-02-27 19:54:01+00:00,235.0,12.61,237.0,16.14,13.6,47.59359,-54.27349
2022-02-27 20:04:01+00:00,238.0,14.22,237.0,16.91,13.6,47.59359,-54.27349
2022-02-27 20:14:00+00:00,229.0,9.44,237.0,15.26,13.6,47.59359,-54.27349
2022-02-27 20:24:00+00:00,232.0,10.27,237.0,14.4,13.6,47.59359,-54.27349
2022-02-27 20:34:00+00:00,243.0,12.93,244.0,14.54,13.6,47.59359,-54.27349
2022-02-27 20:44:00+00:00,243.0,13.17,235.0,14.64,13.6,47.59359,-54.27349
2022-02-27 20:54:00+00:00,254.0,11.54,258.0,13.94,13.6,47.59359,-54.27349
2022-02-27 21:04:00+00:00,245.0,11.83,249.0,13.28,13.6,47.59359,-54.27349
2022-02-27 21:14:00+00:00,242.0,11.26,247.0,14.46,12.73,47.59359,-54.27349
2022-02-27 21:24:00+00:00,241.0,11.29,243.0,14.57,12.73,47.59359,-54.27349
2022-02-27 21:34:00+00:00,254.0,11.62,257.0,13.69,12.73,47.59359,-54.27349
2022-02-27 21:44:00+00:00,238.0,12.39,241.0,14.71,12.73,47.59359,-54.27349
2022-02-27 21:54:00+00:00,232.0,10.13,235.0,12.99,12.73,47.59359,-54.27349
2022-02-27 22:04:00+00:00,228.0,8.89,230.0,10.77,12.73,47.59359,-54.27349
2022-02-27 22:14:00+00:00,233.0,8.29,234.0,11.25,12.41,47.59359,-54.27349
2022-02-27 22:24:00+00:00,226.0,9.86,231.0,12.6,12.41,47.59359,-54.27349
2022-02-27 22:34:00+00:00,226.0,9.16,235.0,14.17,12.41,47.59359,-54.27349
2022-02-27 22:44:00+00:00,224.0,9.76,222.0,11.62,12.41,47.59359,-54.27349
2022-02-27 22:54:00+00:00,226.0,8.07,214.0,9.71,12.41,47.59359,-54.27349
2022-02-27 23:04:00+00:00,231.0,10.58,227.0,12.55,12.41,47.59359,-54.27349
2022-02-27 23:14:00+00:00,229.0,9.74,230.0,12.27,12.41,47.59359,-54.27349
2022-02-27 23:24:00+00:00,229.0,10.97,224.0,12.86,12.41,47.59359,-54.27349
2022-02-27 23:34:00+00:00,224.0,9.37,225.0,10.8,12.41,47.59359,-54.27349
2022-02-27 23:44:00+00:00,221.0,10.16,227.0,13.09,12.41,47.59359,-54.27349
2022-02-27 23:54:00+00:00,227.0,8.86,229.0,10.75,12.41,47.59359,-54.27349
